^^

..:: Storico WU ::..




Lo storico viene creato da WUnderground con i dati che la stazione Meteomincio invia al loro server. L' aggiornamento viene fatto ogni 5 minuti circa, tuttavia possono esserci intervalli pił ampi a causa di errori, interruzioni di servizio o problemi nell' invio tramite FTP.


Storico stazione MeteoMincio
Giorno Sommario per Febbario 17, 2022 Unità:  Inglese    Metrico   Entrambi
Giorno Settimana Mese Anno
  Max: Min: Media:
Temperatura: 48.2 °F 33.8 °F 37.9 °F
Dew Point: 44.6 °F 33.8 °F 36.9 °F
Umidità: 99% 85% 96%
Velocità vento: 6.8mph 0mph 3.4mph
Raffica: 9.3mph - -
Direzione- - South
Pressione: 30 in 29.9 in -
Precipitazioni: 0.01 in    
 
 
Tabulato Dati per Febbario 17, 2022
Ora Temperatura Dew Point Pressione Direzione Velocità vento Raffica Umidità Intensità pioggia (oraria) Info solare Situazione
00:04 35.6 °F 35.6 °F 30 in WSW 3.7 mph 5 mph 97% 0 in 0.00 W/m2 unknown
00:09 35.6 °F 35.6 °F 30 in WSW 3.7 mph 5 mph 97% 0 in 0.00 W/m2 unknown
00:14 35.6 °F 35.6 °F 30 in WSW 3.1 mph 5 mph 98% 0 in 0.00 W/m2 unknown
00:19 35.6 °F 35.6 °F 30 in West 3.1 mph 3.7 mph 98% 0 in 0.00 W/m2 unknown
00:24 35.6 °F 35.6 °F 30 in West 3.1 mph 3.7 mph 98% 0 in 0.00 W/m2 unknown
00:29 35.6 °F 35.6 °F 30 in West 3.1 mph 3.7 mph 97% 0 in 0.00 W/m2 unknown
00:34 35.6 °F 35.6 °F 30 in West 2.5 mph 3.7 mph 97% 0 in 0.00 W/m2 unknown
00:39 35.6 °F 35.6 °F 30 in WSW 3.1 mph 3.7 mph 98% 0 in 0.00 W/m2 unknown
00:44 35.6 °F 35.6 °F 30 in WSW 3.1 mph 3.7 mph 98% 0 in 0.00 W/m2 unknown
00:49 35.6 °F 35.6 °F 30 in WSW 3.7 mph 6.2 mph 98% 0 in 0.00 W/m2 unknown
00:54 35.6 °F 35.6 °F 30 in WSW 4.3 mph 6.2 mph 98% 0 in 0.00 W/m2 unknown
00:59 35.6 °F 35.6 °F 30 in WSW 4.3 mph 6.2 mph 98% 0 in 0.00 W/m2 unknown
01:04 35.6 °F 35.6 °F 30 in WSW 4.3 mph 6.2 mph 98% 0 in 0.00 W/m2 unknown
01:09 35.6 °F 35.6 °F 30 in WSW 3.1 mph 5 mph 98% 0 in 0.00 W/m2 unknown
01:14 35.6 °F 35.6 °F 30 in WSW 5 mph 5 mph 98% 0 in 0.00 W/m2 unknown
01:19 35.6 °F 35.6 °F 30 in WSW 5 mph 5 mph 98% 0 in 0.00 W/m2 unknown
01:24 35.6 °F 35.6 °F 30 in WSW 5 mph 6.2 mph 98% 0 in 0.00 W/m2 unknown
01:29 35.6 °F 33.8 °F 30 in WSW 5 mph 6.2 mph 98% 0 in 0.00 W/m2 unknown
01:34 35.6 °F 33.8 °F 30 in WSW 5 mph 6.2 mph 98% 0 in 0.00 W/m2 unknown
01:39 35.6 °F 33.8 °F 30 in WSW 3.7 mph 6.2 mph 98% 0 in 0.00 W/m2 unknown
01:44 35.6 °F 33.8 °F 30 in SW 4.3 mph 5 mph 98% 0 in 0.00 W/m2 unknown
01:49 35.6 °F 33.8 °F 30 in WSW 5 mph 6.2 mph 98% 0 in 0.00 W/m2 unknown
01:54 35.6 °F 33.8 °F 29.9 in WSW 5 mph 6.2 mph 98% 0 in 0.00 W/m2 unknown
01:59 35.6 °F 33.8 °F 29.9 in WSW 3.1 mph 6.2 mph 98% 0 in 0.00 W/m2 unknown
02:04 35.6 °F 33.8 °F 29.9 in West 3.7 mph 5 mph 98% 0 in 0.00 W/m2 unknown
02:09 35.6 °F 33.8 °F 29.9 in WSW 4.3 mph 5 mph 98% 0 in 0.00 W/m2 unknown
02:14 35.6 °F 33.8 °F 29.9 in SW 4.3 mph 6.2 mph 98% 0 in 0.00 W/m2 unknown
02:19 35.6 °F 33.8 °F 29.9 in WSW 3.7 mph 6.2 mph 98% 0 in 0.00 W/m2 unknown
02:24 35.6 °F 33.8 °F 29.9 in West 5.6 mph 6.8 mph 98% 0 in 0.00 W/m2 unknown
02:29 33.8 °F 33.8 °F 29.9 in WSW 5.6 mph 6.8 mph 98% 0 in 0.00 W/m2 unknown
02:34 33.8 °F 33.8 °F 29.9 in WSW 5 mph 6.8 mph 98% 0 in 0.00 W/m2 unknown
02:39 33.8 °F 33.8 °F 29.9 in SW 5.6 mph 6.8 mph 98% 0 in 0.00 W/m2 unknown
02:44 33.8 °F 33.8 °F 29.9 in SW 5 mph 6.2 mph 98% 0 in 0.00 W/m2 unknown
02:49 33.8 °F 33.8 °F 29.9 in SW 5.6 mph 8.1 mph 98% 0 in 0.00 W/m2 unknown
02:54 33.8 °F 33.8 °F 29.9 in WSW 4.3 mph 8.1 mph 98% 0 in 0.00 W/m2 unknown
02:59 33.8 °F 33.8 °F 29.9 in WSW 4.3 mph 6.2 mph 98% 0 in 0.00 W/m2 unknown
03:04 33.8 °F 33.8 °F 29.9 in WSW 3.7 mph 6.2 mph 98% 0 in 0.00 W/m2 unknown
03:09 33.8 °F 33.8 °F 29.9 in WSW 3.1 mph 5 mph 98% 0 in 0.00 W/m2 unknown
03:14 33.8 °F 33.8 °F 29.9 in West 4.3 mph 6.2 mph 98% 0 in 0.00 W/m2 unknown
03:19 33.8 °F 33.8 °F 29.9 in West 3.7 mph 6.2 mph 98% 0 in 0.00 W/m2 unknown
03:24 33.8 °F 33.8 °F 29.9 in West 4.3 mph 6.2 mph 98% 0 in 0.00 W/m2 unknown
03:29 33.8 °F 33.8 °F 29.9 in WNW 3.1 mph 6.2 mph 98% 0 in 0.00 W/m2 unknown
03:34 33.8 °F 33.8 °F 29.9 in West 5.6 mph 6.8 mph 98% 0 in 0.00 W/m2 unknown
03:39 33.8 °F 33.8 °F 29.9 in West 5 mph 6.8 mph 98% 0 in 0.00 W/m2 unknown
03:44 33.8 °F 33.8 °F 29.9 in WSW 5 mph 6.2 mph 98% 0 in 0.00 W/m2 unknown
03:49 33.8 °F 33.8 °F 29.9 in WSW 3.7 mph 6.2 mph 98% 0 in 0.00 W/m2 unknown
03:54 33.8 °F 33.8 °F 29.9 in WSW 4.3 mph 6.2 mph 98% 0 in 0.00 W/m2 unknown
03:59 33.8 °F 33.8 °F 29.9 in West 4.3 mph 6.2 mph 98% 0 in 0.00 W/m2 unknown
04:04 33.8 °F 33.8 °F 29.9 in West 3.1 mph 5 mph 98% 0 in 0.00 W/m2 unknown
04:09 33.8 °F 33.8 °F 29.9 in WSW 3.7 mph 5 mph 98% 0 in 0.00 W/m2 unknown
04:14 33.8 °F 33.8 °F 29.9 in SW 3.7 mph 5 mph 98% 0 in 0.00 W/m2 unknown
04:19 33.8 °F 33.8 °F 29.9 in WSW 3.7 mph 5 mph 98% 0 in 0.00 W/m2 unknown
04:24 33.8 °F 33.8 °F 29.9 in West 3.7 mph 5 mph 98% 0 in 0.00 W/m2 unknown
04:29 33.8 °F 33.8 °F 29.9 in West 3.7 mph 5 mph 98% 0 in 0.00 W/m2 unknown
04:34 33.8 °F 33.8 °F 29.9 in WSW 3.7 mph 5 mph 98% 0 in 0.00 W/m2 unknown
04:39 33.8 °F 33.8 °F 29.9 in WSW 3.7 mph 5 mph 98% 0 in 0.00 W/m2 unknown
04:44 33.8 °F 33.8 °F 29.9 in West 4.3 mph 5 mph 98% 0 in 0.00 W/m2 unknown
04:49 33.8 °F 33.8 °F 29.9 in West 3.7 mph 5 mph 98% 0 in 0.00 W/m2 unknown
04:54 33.8 °F 33.8 °F 29.9 in West 3.1 mph 5 mph 98% 0 in 0.00 W/m2 unknown
04:59 33.8 °F 33.8 °F 29.9 in WNW 3.1 mph 5 mph 98% 0 in 0.00 W/m2 unknown
05:04 33.8 °F 33.8 °F 29.9 in WNW 3.1 mph 5 mph 98% 0 in 0.00 W/m2 unknown
05:09 33.8 °F 33.8 °F 29.9 in WNW 3.1 mph 3.7 mph 98% 0 in 0.00 W/m2 unknown
05:14 33.8 °F 33.8 °F 29.9 in NW 3.1 mph 3.7 mph 98% 0 in 0.00 W/m2 unknown
05:19 33.8 °F 33.8 °F 29.9 in NW 3.7 mph 3.7 mph 98% 0 in 0.00 W/m2 unknown
05:24 33.8 °F 33.8 °F 29.9 in WNW 3.7 mph 5 mph 98% 0 in 0.00 W/m2 unknown
05:29 33.8 °F 33.8 °F 29.9 in WNW 3.1 mph 5 mph 98% 0 in 0.00 W/m2 unknown
05:34 33.8 °F 33.8 °F 29.9 in WNW 1.9 mph 5 mph 98% 0 in 0.00 W/m2 unknown
05:39 33.8 °F 33.8 °F 29.9 in WNW 1.2 mph 3.1 mph 98% 0 in 0.00 W/m2 unknown
05:44 33.8 °F 33.8 °F 29.9 in West 1.2 mph 2.5 mph 98% 0 in 0.00 W/m2 unknown
05:49 33.8 °F 33.8 °F 29.9 in WNW 1.2 mph 2.5 mph 98% 0 in 0.00 W/m2 unknown
05:54 33.8 °F 33.8 °F 29.9 in NNW 1.2 mph 2.5 mph 98% 0 in 0.00 W/m2 unknown
05:59 33.8 °F 33.8 °F 29.9 in NNW 1.2 mph 2.5 mph 98% 0 in 0.00 W/m2 unknown
06:04 33.8 °F 33.8 °F 29.9 in West 1.2 mph 2.5 mph 98% 0 in 0.00 W/m2 unknown
06:09 33.8 °F 33.8 °F 29.9 in WSW 1.9 mph 3.1 mph 98% 0 in 0.00 W/m2 unknown
06:14 33.8 °F 33.8 °F 29.9 in WNW 3.7 mph 3.7 mph 98% 0 in 0.00 W/m2 unknown
06:19 33.8 °F 33.8 °F 29.9 in WNW 3.1 mph 3.7 mph 98% 0.01 in 0.00 W/m2 unknown
06:24 33.8 °F 33.8 °F 29.9 in WNW 3.7 mph 3.7 mph 98% 0.01 in 0.00 W/m2 unknown
06:29 33.8 °F 33.8 °F 29.9 in West 3.7 mph 3.7 mph 98% 0.01 in 0.00 W/m2 unknown
06:34 33.8 °F 33.8 °F 29.9 in NW 2.5 mph 3.7 mph 98% 0.01 in 0.00 W/m2 unknown
06:39 33.8 °F 33.8 °F 29.9 in NW 3.1 mph 5 mph 98% 0.01 in 0.00 W/m2 unknown
06:44 33.8 °F 33.8 °F 29.9 in NW 3.7 mph 5 mph 98% 0.01 in 0.00 W/m2 unknown
06:49 33.8 °F 33.8 °F 29.9 in NNW 3.1 mph 5 mph 98% 0.01 in 0.00 W/m2 unknown
06:54 33.8 °F 33.8 °F 29.9 in NNW 3.1 mph 3.7 mph 98% 0.01 in 0.00 W/m2 unknown
06:59 33.8 °F 33.8 °F 29.9 in NNW 2.5 mph 3.7 mph 98% 0.01 in 0.00 W/m2 unknown
07:04 33.8 °F 33.8 °F 29.9 in NW 1.2 mph 3.7 mph 98% 0.01 in 0.00 W/m2 unknown
07:09 33.8 °F 33.8 °F 29.9 in West 2.5 mph 3.7 mph 98% 0.01 in 0.00 W/m2 unknown
07:14 33.8 °F 33.8 °F 29.9 in WNW 2.5 mph 3.7 mph 98% 0.01 in 0.00 W/m2 unknown
07:19 33.8 °F 33.8 °F 29.9 in NNW 3.1 mph 3.7 mph 98% 0.01 in 0.00 W/m2 unknown
07:24 33.8 °F 33.8 °F 29.9 in NNW 3.1 mph 3.7 mph 98% 0 in 0.00 W/m2 unknown
07:29 33.8 °F 33.8 °F 29.9 in NNW 1.9 mph 3.7 mph 98% 0 in 0.00 W/m2 unknown
07:34 33.8 °F 33.8 °F 29.9 in NNW 1.9 mph 3.1 mph 98% 0 in 0.00 W/m2 unknown
07:39 33.8 °F 33.8 °F 29.9 in NNW 1.9 mph 3.1 mph 98% 0 in 0.00 W/m2 unknown
07:44 33.8 °F 33.8 °F 29.9 in NNW 2.5 mph 3.7 mph 98% 0 in 0.00 W/m2 unknown
07:49 33.8 °F 33.8 °F 29.9 in North 2.5 mph 3.7 mph 98% 0 in 5.00 W/m2 unknown
07:54 33.8 °F 33.8 °F 29.9 in NNW 3.1 mph 3.7 mph 98% 0 in 7.00 W/m2 unknown
07:59 33.8 °F 33.8 °F 29.9 in NW 3.7 mph 3.7 mph 98% 0 in 12.00 W/m2 unknown
08:04 33.8 °F 33.8 °F 29.9 in NW 3.7 mph 6.2 mph 98% 0 in 16.00 W/m2 unknown
08:09 33.8 °F 33.8 °F 29.9 in NW 3.7 mph 6.2 mph 99% 0 in 18.00 W/m2 unknown
08:14 33.8 °F 33.8 °F 29.9 in NE 1.9 mph 6.2 mph 99% 0 in 26.00 W/m2 unknown
08:19 33.8 °F 33.8 °F 29.9 in WSW 2.5 mph 3.7 mph 98% 0 in 26.00 W/m2 unknown
08:24 33.8 °F 33.8 °F 29.9 in WNW 3.7 mph 5 mph 99% 0 in 32.00 W/m2 unknown
08:29 33.8 °F 33.8 °F 29.9 in WSW 2.5 mph 5 mph 99% 0 in 37.00 W/m2 unknown
08:34 33.8 °F 33.8 °F 29.9 in WSW 2.5 mph 3.7 mph 99% 0 in 42.00 W/m2 unknown
08:39 33.8 °F 33.8 °F 29.9 in West 3.1 mph 3.7 mph 99% 0 in 40.00 W/m2 unknown
08:44 33.8 °F 33.8 °F 29.9 in WNW 3.1 mph 3.7 mph 99% 0 in 44.00 W/m2 unknown
08:49 33.8 °F 33.8 °F 29.9 in WNW 3.1 mph 3.7 mph 99% 0 in 51.00 W/m2 unknown
08:54 33.8 °F 33.8 °F 29.9 in NW 1.9 mph 3.7 mph 98% 0 in 54.00 W/m2 unknown
08:59 33.8 °F 33.8 °F 30 in NW 3.1 mph 3.7 mph 98% 0 in 54.00 W/m2 unknown
09:04 33.8 °F 33.8 °F 29.9 in WSW 3.1 mph 3.7 mph 99% 0 in 70.00 W/m2 unknown
09:09 33.8 °F 33.8 °F 29.9 in WSW 3.1 mph 3.7 mph 98% 0 in 70.00 W/m2 unknown
09:14 33.8 °F 33.8 °F 29.9 in WSW 4.3 mph 5 mph 99% 0 in 77.00 W/m2 unknown
09:19 33.8 °F 33.8 °F 29.9 in West 4.3 mph 5 mph 99% 0 in 86.00 W/m2 unknown
09:24 33.8 °F 33.8 °F 29.9 in WNW 3.1 mph 5 mph 99% 0 in 90.00 W/m2 unknown
09:29 33.8 °F 33.8 °F 29.9 in SW 1.9 mph 3.7 mph 99% 0 in 90.00 W/m2 unknown
09:34 33.8 °F 33.8 °F 29.9 in WNW 1.9 mph 3.7 mph 99% 0 in 79.00 W/m2 unknown
09:39 33.8 °F 33.8 °F 29.9 in WNW 1.9 mph 3.7 mph 99% 0 in 86.00 W/m2 unknown
09:44 33.8 °F 33.8 °F 29.9 in WNW 3.1 mph 3.7 mph 99% 0 in 84.00 W/m2 unknown
09:49 33.8 °F 33.8 °F 30 in WNW 3.1 mph 3.7 mph 99% 0 in 90.00 W/m2 unknown
09:54 33.8 °F 33.8 °F 30 in West 1.9 mph 3.7 mph 99% 0 in 111.00 W/m2 unknown
09:59 33.8 °F 33.8 °F 29.9 in West 3.1 mph 3.7 mph 99% 0 in 111.00 W/m2 unknown
10:04 35.6 °F 33.8 °F 30 in West 3.1 mph 3.7 mph 99% 0 in 100.00 W/m2 unknown
10:09 35.6 °F 35.6 °F 30 in WSW 3.7 mph 3.7 mph 99% 0 in 97.00 W/m2 unknown
10:14 35.6 °F 35.6 °F 30 in West 2.5 mph 3.7 mph 99% 0 in 90.00 W/m2 unknown
10:19 35.6 °F 35.6 °F 30 in WSW 3.1 mph 5 mph 99% 0 in 104.00 W/m2 unknown
10:24 35.6 °F 35.6 °F 30 in SW 4.3 mph 6.2 mph 99% 0 in 111.00 W/m2 unknown
10:29 35.6 °F 35.6 °F 29.9 in WSW 5 mph 6.2 mph 99% 0 in 118.00 W/m2 unknown
10:34 35.6 °F 35.6 °F 29.9 in WSW 5 mph 6.2 mph 99% 0 in 118.00 W/m2 unknown
10:39 35.6 °F 35.6 °F 29.9 in West 5 mph 5 mph 99% 0 in 121.00 W/m2 unknown
10:44 35.6 °F 35.6 °F 30 in WSW 3.7 mph 5 mph 99% 0 in 132.00 W/m2 unknown
10:49 35.6 °F 35.6 °F 29.9 in WSW 4.3 mph 6.2 mph 99% 0 in 132.00 W/m2 unknown
10:54 35.6 °F 35.6 °F 29.9 in WSW 3.1 mph 6.2 mph 99% 0 in 134.00 W/m2 unknown
10:59 35.6 °F 35.6 °F 29.9 in SW 3.1 mph 5 mph 99% 0 in 146.00 W/m2 unknown
11:04 35.6 °F 35.6 °F 29.9 in SSW 4.3 mph 5 mph 99% 0 in 165.00 W/m2 unknown
11:09 35.6 °F 35.6 °F 29.9 in WSW 3.1 mph 5 mph 99% 0 in 176.00 W/m2 unknown
11:14 35.6 °F 35.6 °F 29.9 in West 1.2 mph 3.7 mph 99% 0 in 148.00 W/m2 unknown
11:19 35.6 °F 35.6 °F 29.9 in SSW 1.9 mph 3.1 mph 99% 0 in 156.00 W/m2 unknown
11:24 35.6 °F 35.6 °F 29.9 in SSW 3.7 mph 5 mph 99% 0 in 171.00 W/m2 unknown
11:29 35.6 °F 35.6 °F 29.9 in SSW 3.1 mph 5 mph 99% 0 in 171.00 W/m2 unknown
11:34 37.4 °F 35.6 °F 29.9 in SW 4.3 mph 6.2 mph 99% 0 in 165.00 W/m2 unknown
11:39 37.4 °F 35.6 °F 29.9 in WSW 2.5 mph 6.2 mph 99% 0 in 158.00 W/m2 unknown
11:44 37.4 °F 35.6 °F 29.9 in West 3.7 mph 5 mph 99% 0 in 139.00 W/m2 unknown
11:49 37.4 °F 37.4 °F 29.9 in West 3.7 mph 5 mph 99% 0 in 127.00 W/m2 unknown
11:54 37.4 °F 37.4 °F 29.9 in WSW 3.7 mph 5 mph 99% 0 in 153.00 W/m2 unknown
11:59 37.4 °F 37.4 °F 29.9 in SW 3.1 mph 5 mph 99% 0 in 149.00 W/m2 unknown
12:04 37.4 °F 35.6 °F 29.9 in SW 2.5 mph 3.7 mph 99% 0 in 132.00 W/m2 unknown
12:09 37.4 °F 37.4 °F 29.9 in West 3.1 mph 3.7 mph 99% 0 in 146.00 W/m2 unknown
12:14 37.4 °F 37.4 °F 29.9 in NW 2.5 mph 3.7 mph 99% 0 in 142.00 W/m2 unknown
12:19 37.4 °F 37.4 °F 29.9 in North 1.9 mph 3.7 mph 99% 0 in 135.00 W/m2 unknown
12:24 37.4 °F 37.4 °F 29.9 in NNE 2.5 mph 3.7 mph 99% 0 in 132.00 W/m2 unknown
12:29 37.4 °F 37.4 °F 29.9 in NNE 1.2 mph 3.1 mph 99% 0 in 142.00 W/m2 unknown
12:34 37.4 °F 37.4 °F 29.9 in West 4.3 mph 5 mph 99% 0 in 160.00 W/m2 unknown
12:39 37.4 °F 37.4 °F 29.9 in SW 3.1 mph 5 mph 99% 0 in 156.00 W/m2 unknown
12:44 37.4 °F 37.4 °F 29.9 in South 1.2 mph 5 mph 99% 0 in 153.00 W/m2 unknown
12:49 37.4 °F 37.4 °F 29.9 in WNW 2.5 mph 3.7 mph 99% 0 in 149.00 W/m2 unknown
12:54 37.4 °F 37.4 °F 29.9 in WNW 3.1 mph 3.7 mph 99% 0 in 162.00 W/m2 unknown
12:59 37.4 °F 37.4 °F 29.9 in West 2.5 mph 3.7 mph 99% 0 in 179.00 W/m2 unknown
13:04 39.2 °F 37.4 °F 29.9 in WNW 2.5 mph 3.7 mph 99% 0 in 213.00 W/m2 unknown
13:09 39.2 °F 39.2 °F 29.9 in WNW 1.2 mph 3.1 mph 99% 0 in 202.00 W/m2 unknown
13:14 39.2 °F 39.2 °F 29.9 in WNW 1.9 mph 3.1 mph 99% 0 in 246.00 W/m2 unknown
13:19 39.2 °F 39.2 °F 29.9 in West 1.9 mph 3.7 mph 99% 0 in 260.00 W/m2 unknown
13:24 39.2 °F 39.2 °F 29.9 in NW 1.9 mph 3.7 mph 99% 0 in 258.00 W/m2 unknown
13:29 41 °F 39.2 °F 29.9 in SSW 1.9 mph 3.7 mph 99% 0 in 450.00 W/m2 unknown
13:34 41 °F 41 °F 29.9 in WSW 1.9 mph 3.7 mph 99% 0 in 671.00 W/m2 unknown
13:39 41 °F 41 °F 29.9 in SW 3.1 mph 5 mph 99% 0 in 649.00 W/m2 unknown
13:44 41 °F 41 °F 29.9 in SW 3.7 mph 6.2 mph 99% 0 in 545.00 W/m2 unknown
13:49 41 °F 41 °F 29.9 in SSW 5.6 mph 6.8 mph 99% 0 in 357.00 W/m2 unknown
13:54 41 °F 41 °F 29.9 in South 5.6 mph 6.8 mph 98% 0 in 357.00 W/m2 unknown
13:59 42.8 °F 41 °F 29.9 in SSE 3.1 mph 6.8 mph 97% 0 in 417.00 W/m2 unknown
14:04 42.8 °F 41 °F 29.9 in South 3.7 mph 6.2 mph 96% 0 in 534.00 W/m2 unknown
14:09 42.8 °F 41 °F 29.9 in South 4.3 mph 6.2 mph 96% 0 in 455.00 W/m2 unknown
14:14 42.8 °F 41 °F 29.9 in SSW 3.1 mph 6.2 mph 93% 0 in 478.00 W/m2 unknown
14:19 42.8 °F 41 °F 29.9 in South 3.1 mph 3.7 mph 92% 0 in 448.00 W/m2 unknown
14:24 44.6 °F 41 °F 29.9 in SSW 1.9 mph 3.1 mph 90% 0 in 450.00 W/m2 unknown
14:29 44.6 °F 41 °F 29.9 in SSW 3.1 mph 3.7 mph 90% 0 in 441.00 W/m2 unknown
14:34 44.6 °F 41 °F 29.9 in South 3.1 mph 3.7 mph 89% 0 in 427.00 W/m2 unknown
14:39 44.6 °F 41 °F 29.9 in South 2.5 mph 3.7 mph 88% 0 in 420.00 W/m2 unknown
14:44 44.6 °F 42.8 °F 29.9 in SSE 1.9 mph 3.1 mph 88% 0 in 420.00 W/m2 unknown
14:49 46.4 °F 42.8 °F 29.9 in South 1.9 mph 3.7 mph 88% 0 in 396.00 W/m2 unknown
14:54 46.4 °F 42.8 °F 29.9 in SSW 2.5 mph 3.7 mph 88% 0 in 385.00 W/m2 unknown
14:59 46.4 °F 42.8 °F 29.9 in WSW 1.9 mph 3.1 mph 87% 0 in 378.00 W/m2 unknown
15:04 46.4 °F 42.8 °F 29.9 in South 2.5 mph 3.7 mph 86% 0 in 378.00 W/m2 unknown
15:09 46.4 °F 42.8 °F 29.9 in SSW 1.2 mph 2.5 mph 86% 0 in 362.00 W/m2 unknown
15:14 46.4 °F 42.8 °F 29.9 in SW 1.2 mph 2.5 mph 86% 0 in 355.00 W/m2 unknown
15:19 48.2 °F 42.8 °F 29.9 in ENE 6.2 mph 8.1 mph 86% 0 in 339.00 W/m2 unknown
15:24 48.2 °F 42.8 °F 29.9 in ENE 5 mph 6.8 mph 86% 0 in 325.00 W/m2 unknown
15:29 46.4 °F 44.6 °F 29.9 in ENE 5 mph 6.8 mph 89% 0 in 315.00 W/m2 unknown
15:34 48.2 °F 44.6 °F 29.9 in ENE 3.7 mph 6.8 mph 89% 0 in 304.00 W/m2 unknown
15:39 48.2 °F 42.8 °F 29.9 in ENE 6.2 mph 9.3 mph 85% 0 in 287.00 W/m2 unknown
15:44 48.2 °F 42.8 °F 29.9 in ENE 6.8 mph 8.7 mph 85% 0 in 271.00 W/m2 unknown
15:49 48.2 °F 42.8 °F 29.9 in ENE 6.8 mph 8.1 mph 85% 0 in 255.00 W/m2 unknown
15:54 48.2 °F 42.8 °F 29.9 in ENE 6.2 mph 8.1 mph 85% 0 in 230.00 W/m2 unknown
15:59 48.2 °F 42.8 °F 29.9 in NE 5 mph 6.8 mph 85% 0 in 229.00 W/m2 unknown
16:04 48.2 °F 42.8 °F 29.9 in ENE 5.6 mph 6.8 mph 85% 0 in 220.00 W/m2 unknown
16:09 48.2 °F 42.8 °F 29.9 in ENE 5 mph 6.8 mph 85% 0 in 206.00 W/m2 unknown
16:14 48.2 °F 42.8 °F 29.9 in East 3.7 mph 6.8 mph 86% 0 in 197.00 W/m2 unknown
16:19 48.2 °F 42.8 °F 29.9 in East 5 mph 6.8 mph 85% 0 in 183.00 W/m2 unknown
16:24 48.2 °F 42.8 °F 29.9 in East 3.7 mph 5 mph 85% 0 in 171.00 W/m2 unknown
16:29 46.4 °F 42.8 °F 29.9 in East 4.3 mph 5 mph 85% 0 in 141.00 W/m2 unknown
16:34 46.4 °F 42.8 °F 29.9 in East 3.1 mph 5 mph 85% 0 in 141.00 W/m2 unknown
16:39 46.4 °F 42.8 °F 29.9 in ENE 3.1 mph 5 mph 85% 0 in 128.00 W/m2 unknown
16:44 48.2 °F 42.8 °F 29.9 in ENE 3.1 mph 6.2 mph 85% 0 in 114.00 W/m2 unknown
16:49 48.2 °F 42.8 °F 29.9 in ENE 5 mph 6.8 mph 86% 0 in 100.00 W/m2 unknown
16:54 46.4 °F 42.8 °F 29.9 in ENE 4.3 mph 6.8 mph 86% 0 in 84.00 W/m2 unknown
16:59 46.4 °F 42.8 °F 29.9 in ENE 3.7 mph 6.8 mph 87% 0 in 70.00 W/m2 unknown
17:04 46.4 °F 42.8 °F 29.9 in ENE 5 mph 6.8 mph 87% 0 in 60.00 W/m2 unknown
17:09 46.4 °F 42.8 °F 29.9 in ENE 5 mph 6.8 mph 88% 0 in 49.00 W/m2 unknown
17:14 46.4 °F 42.8 °F 29.9 in ENE 4.3 mph 6.8 mph 88% 0 in 42.00 W/m2 unknown
17:19 46.4 °F 42.8 °F 29.9 in ENE 4.3 mph 6.2 mph 88% 0 in 33.00 W/m2 unknown
17:24 44.6 °F 42.8 °F 29.9 in NE 3.7 mph 6.2 mph 88% 0 in 28.00 W/m2 unknown
17:29 44.6 °F 42.8 °F 29.9 in NE 5 mph 6.2 mph 89% 0 in 19.00 W/m2 unknown
17:34 44.6 °F 41 °F 29.9 in NE 5 mph 6.2 mph 89% 0 in 11.00 W/m2 unknown
17:39 44.6 °F 41 °F 29.9 in NE 5.6 mph 6.8 mph 90% 0 in 11.00 W/m2 unknown
17:44 44.6 °F 41 °F 29.9 in NE 6.2 mph 8.1 mph 90% 0 in 7.00 W/m2 unknown
17:49 44.6 °F 41 °F 29.9 in NE 5 mph 8.1 mph 91% 0 in 5.00 W/m2 unknown
17:54 42.8 °F 41 °F 29.9 in NE 6.2 mph 9.3 mph 91% 0 in 0.00 W/m2 unknown
17:59 42.8 °F 41 °F 29.9 in NE 4.3 mph 8.7 mph 91% 0 in 0.00 W/m2 unknown
18:04 42.8 °F 41 °F 29.9 in NE 6.2 mph 9.3 mph 92% 0 in 0.00 W/m2 unknown
18:09 42.8 °F 41 °F 29.9 in NE 6.2 mph 9.3 mph 92% 0 in 0.00 W/m2 unknown
18:14 42.8 °F 41 °F 29.9 in ENE 6.2 mph 8.7 mph 93% 0 in 0.00 W/m2 unknown
18:19 42.8 °F 41 °F 29.9 in ENE 5.6 mph 8.1 mph 93% 0 in 0.00 W/m2 unknown
18:24 42.8 °F 39.2 °F 29.9 in NE 5.6 mph 8.1 mph 93% 0 in 0.00 W/m2 unknown
18:29 41 °F 39.2 °F 29.9 in NE 5 mph 6.8 mph 93% 0 in 0.00 W/m2 unknown
18:34 41 °F 39.2 °F 29.9 in ENE 5.6 mph 9.3 mph 93% 0 in 0.00 W/m2 unknown
18:39 41 °F 39.2 °F 29.9 in NE 5 mph 8.7 mph 93% 0 in 0.00 W/m2 unknown
18:44 41 °F 39.2 °F 29.9 in NE 4.3 mph 6.8 mph 94% 0 in 0.00 W/m2 unknown
18:49 41 °F 39.2 °F 29.9 in NE 5 mph 6.2 mph 94% 0 in 0.00 W/m2 unknown
18:54 41 °F 39.2 °F 29.9 in ENE 5 mph 6.2 mph 94% 0 in 0.00 W/m2 unknown
18:59 41 °F 39.2 °F 29.9 in ENE 3.7 mph 6.2 mph 94% 0 in 0.00 W/m2 unknown
19:04 41 °F 39.2 °F 29.9 in ENE 4.3 mph 6.2 mph 94% 0 in 0.00 W/m2 unknown
19:09 39.2 °F 39.2 °F 29.9 in ENE 3.7 mph 5.6 mph 94% 0 in 0.00 W/m2 unknown
19:14 39.2 °F 39.2 °F 29.9 in NE 3.1 mph 6.2 mph 94% 0 in 0.00 W/m2 unknown
19:19 39.2 °F 37.4 °F 29.9 in NE 3.1 mph 3.7 mph 94% 0 in 0.00 W/m2 unknown
19:24 39.2 °F 37.4 °F 29.9 in ENE 3.1 mph 3.7 mph 94% 0 in 0.00 W/m2 unknown
19:29 39.2 °F 37.4 °F 29.9 in ENE 2.5 mph 3.7 mph 94% 0 in 0.00 W/m2 unknown
19:34 39.2 °F 37.4 °F 29.9 in ENE 1.9 mph 3.1 mph 94% 0 in 0.00 W/m2 unknown
19:39 39.2 °F 37.4 °F 29.9 in NE 3.1 mph 3.7 mph 94% 0 in 0.00 W/m2 unknown
19:44 39.2 °F 37.4 °F 29.9 in NE 3.1 mph 3.7 mph 95% 0 in 0.00 W/m2 unknown
19:49 39.2 °F 37.4 °F 29.9 in NE 3.1 mph 3.7 mph 95% 0 in 0.00 W/m2 unknown
19:54 39.2 °F 37.4 °F 29.9 in NE 3.1 mph 3.7 mph 95% 0 in 0.00 W/m2 unknown
19:59 39.2 °F 37.4 °F 29.9 in NE 2.5 mph 3.7 mph 95% 0 in 0.00 W/m2 unknown
20:04 39.2 °F 37.4 °F 29.9 in NE 2.5 mph 3.7 mph 95% 0 in 0.00 W/m2 unknown
20:09 39.2 °F 37.4 °F 29.9 in NE 4.3 mph 5 mph 95% 0 in 0.00 W/m2 unknown
20:14 39.2 °F 37.4 °F 29.9 in NE 3.7 mph 5 mph 95% 0 in 0.00 W/m2 unknown
20:19 39.2 °F 37.4 °F 29.9 in NE 2.5 mph 5 mph 95% 0 in 0.00 W/m2 unknown
20:24 39.2 °F 37.4 °F 29.9 in NE 2.5 mph 3.7 mph 95% 0 in 0.00 W/m2 unknown
20:29 39.2 °F 37.4 °F 29.9 in NE 1.9 mph 3.7 mph 95% 0 in 0.00 W/m2 unknown
20:34 39.2 °F 37.4 °F 29.9 in NE 1.2 mph 3.1 mph 95% 0 in 0.00 W/m2 unknown
20:39 39.2 °F 37.4 °F 29.9 in ENE 1.2 mph 2.5 mph 95% 0 in 0.00 W/m2 unknown
20:44 39.2 °F 37.4 °F 29.9 in ENE 0.6 mph 1.9 mph 94% 0 in 0.00 W/m2 unknown
20:49 39.2 °F 37.4 °F 29.9 in Calm   1.2 mph 95% 0 in 0.00 W/m2 unknown
20:54 39.2 °F 37.4 °F 29.9 in NNE 1.9 mph 3.1 mph 95% 0 in 0.00 W/m2 unknown
20:59 37.4 °F 37.4 °F 29.9 in NNE 2.5 mph 3.7 mph 95% 0 in 0.00 W/m2 unknown
21:04 37.4 °F 37.4 °F 29.9 in NNE 2.5 mph 3.7 mph 95% 0 in 0.00 W/m2 unknown
21:09 39.2 °F 37.4 °F 29.9 in NNE 3.1 mph 3.7 mph 96% 0 in 0.00 W/m2 unknown
21:14 39.2 °F 37.4 °F 29.9 in NNE 2.5 mph 3.7 mph 95% 0 in 0.00 W/m2 unknown
21:19 37.4 °F 37.4 °F 29.9 in NNE 1.9 mph 3.7 mph 95% 0 in 0.00 W/m2 unknown
21:24 37.4 °F 37.4 °F 29.9 in NNE 2.5 mph 3.7 mph 95% 0 in 0.00 W/m2 unknown
21:29 37.4 °F 37.4 °F 29.9 in NNE 2.5 mph 3.7 mph 95% 0 in 0.00 W/m2 unknown
21:34 37.4 °F 37.4 °F 29.9 in NNE 1.2 mph 3.1 mph 95% 0 in 0.00 W/m2 unknown
21:39 37.4 °F 37.4 °F 29.9 in NNE 1.2 mph 2.5 mph 96% 0 in 0.00 W/m2 unknown
21:44 37.4 °F 37.4 °F 29.9 in Calm   1.9 mph 96% 0 in 0.00 W/m2 unknown
21:49 37.4 °F 37.4 °F 29.9 in North 2.5 mph 3.7 mph 95% 0 in 0.00 W/m2 unknown
21:54 37.4 °F 37.4 °F 29.9 in NNE 3.1 mph 3.7 mph 96% 0 in 0.00 W/m2 unknown
21:59 37.4 °F 37.4 °F 29.9 in NNE 5 mph 6.2 mph 96% 0 in 0.00 W/m2 unknown
22:04 39.2 °F 37.4 °F 29.9 in NE 5 mph 6.2 mph 96% 0 in 0.00 W/m2 unknown
22:09 39.2 °F 37.4 °F 29.9 in NE 3.7 mph 6.2 mph 96% 0 in 0.00 W/m2 unknown
22:14 39.2 °F 37.4 °F 29.9 in NE 3.7 mph 4.3 mph 96% 0 in 0.00 W/m2 unknown
22:19 39.2 °F 37.4 °F 29.9 in NE 3.1 mph 5 mph 95% 0 in 0.00 W/m2 unknown
22:24 39.2 °F 37.4 °F 29.9 in NE 1.9 mph 3.1 mph 95% 0 in 0.00 W/m2 unknown
22:29 37.4 °F 37.4 °F 29.9 in North 1.9 mph 3.7 mph 95% 0 in 0.00 W/m2 unknown
22:34 37.4 °F 37.4 °F 29.9 in NNW 1.9 mph 3.1 mph 95% 0 in 0.00 W/m2 unknown
22:39 37.4 °F 37.4 °F 29.9 in North 3.1 mph 3.7 mph 95% 0 in 0.00 W/m2 unknown
22:44 37.4 °F 37.4 °F 29.9 in NNE 2.5 mph 3.7 mph 96% 0 in 0.00 W/m2 unknown
22:49 37.4 °F 37.4 °F 29.9 in NNE 3.1 mph 3.7 mph 96% 0 in 0.00 W/m2 unknown
22:54 37.4 °F 37.4 °F 29.9 in NNE 3.1 mph 3.7 mph 96% 0 in 0.00 W/m2 unknown
22:59 37.4 °F 37.4 °F 29.9 in NNE 1.9 mph 3.7 mph 96% 0 in 0.00 W/m2 unknown
23:04 37.4 °F 35.6 °F 29.9 in NNE 0.6 mph 3.1 mph 96% 0 in 0.00 W/m2 unknown
23:09 37.4 °F 35.6 °F 29.9 in NNE 1.2 mph 2.5 mph 96% 0 in 0.00 W/m2 unknown
23:14 37.4 °F 35.6 °F 29.9 in NE 2.5 mph 3.7 mph 96% 0 in 0.00 W/m2 unknown
23:19 37.4 °F 35.6 °F 29.9 in NE 1.9 mph 3.1 mph 96% 0 in 0.00 W/m2 unknown
23:24 37.4 °F 35.6 °F 29.9 in Calm   1.9 mph 96% 0 in 0.00 W/m2 unknown
23:29 37.4 °F 35.6 °F 29.9 in NE 1.9 mph 3.7 mph 96% 0 in 0.00 W/m2 unknown
23:34 37.4 °F 35.6 °F 29.9 in NE 3.1 mph 3.7 mph 96% 0 in 0.00 W/m2 unknown
23:39 37.4 °F 35.6 °F 29.9 in NE 2.5 mph 3.7 mph 96% 0 in 0.00 W/m2 unknown
23:44 37.4 °F 35.6 °F 29.9 in NE 2.5 mph 3.7 mph 96% 0 in 0.00 W/m2 unknown
23:49 37.4 °F 35.6 °F 29.9 in NE 1.9 mph 3.1 mph 96% 0 in 0.00 W/m2 unknown
23:54 37.4 °F 35.6 °F 29.9 in NE 1.2 mph 2.5 mph 96% 0 in 0.00 W/m2 unknown
23:59 37.4 °F 35.6 °F 29.9 in NE 1.9 mph 3.7 mph 96% 0 in 0.00 W/m2 unknown
Stazione Meteorologica MeteoMincio Rivalta s/M (MN)
Con i complimenti di Weather Underground - 4 mb



METEO PILLOLE
Temperatura più bassa in montagna in Italia
Busa Fradusta (2.606m) Pale di San Martino - Trento
-48.3°C il 27 Dicembre 2010.
Share

Non seguire questo link o sarai bannato dal sito!